Location: Cahas Mountain Overlook
(37.0833°N, 80.1000°W)
Time: 19:18:17
(UTC-04:00)

Explorer 7 - Pass Details

Date: 16 February 2026
Orbit: 430 x 541 km, 50.2° (Epoch: 13 March)

Event Time Altitude Azimuth Distance (km) Brightness Sun altitude
Rises 23:35:14 0° 288° (WNW) 2,629 - -61.6°
Reaches altitude 10° 23:38:26 10° 260° (W) 1,761 - -61.9°
Maximum altitude 23:40:20 13° 232° (SW) 1,581 - -62.1°
Drops below altitude 10° 23:42:15 10° 203° (SSW) 1,779 - -62.3°
Sets 23:45:31 0° 176° (S) 2,678 - -62.6°
